2016-01-01 00:01:57 r, 18.47m,0000000004Hz,0000134205c,0000000.291s, 004.5C,00002191
2016-01-01 00:11:58 r, 18.53m,0000000003Hz,0000142338c,0000000.309s, 004.5C,00002191
2016-01-01 00:21:58 r, 18.45m,0000000003Hz,0000131552c,0000000.285s, 004.5C,00002191
2016-01-01 00:31:59 r, 18.37m,0000000004Hz,0000122677c,0000000.266s, 004.8C,00002191
2016-01-01 00:41:58 r, 17.96m,0000000005Hz,0000084117c,0000000.183s, 004.8C,00002191
2016-01-01 00:51:57 r, 17.64m,0000000008Hz,0000062068c,0000000.135s, 005.1C,00002191
2016-01-01 01:01:58 r, 17.70m,0000000007Hz,0000066150c,0000000.144s, 005.1C,00002191
2016-01-01 01:11:58 r, 17.96m,0000000005Hz,0000083631c,0000000.181s, 005.4C,00002191
2016-01-01 01:21:57 r, 18.18m,0000000004Hz,0000102587c,0000000.223s, 005.8C,00002191
2016-01-01 01:31:57 r, 18.04m,0000000005Hz,0000090266c,0000000.196s, 005.8C,00002191
2016-01-01 01:41:57 r, 17.96m,0000000006Hz,0000083623c,0000000.181s, 006.1C,00002191
2016-01-01 01:51:57 r, 17.98m,0000000006Hz,0000085297c,0000000.185s, 006.1C,00002191
2016-01-01 02:01:59 r, 17.65m,0000000008Hz,0000062772c,0000000.136s, 006.4C,00002191
2016-01-01 02:11:57 r, 17.64m,0000000007Hz,0000062514c,0000000.136s, 006.7C,00002191
2016-01-01 02:21:57 r, 17.51m,0000000009Hz,0000055433c,0000000.120s, 007.0C,00002191
2016-01-01 02:31:57 r, 17.69m,0000000007Hz,0000065334c,0000000.142s, 007.0C,00002191
2016-01-01 02:41:57 r, 18.34m,0000000004Hz,0000119012c,0000000.258s, 007.0C,00002191
2016-01-01 02:51:58 r, 19.21m,0000000001Hz,0000264747c,0000000.575s, 007.0C,00002191
2016-01-01 03:01:58 r, 19.27m,0000000002Hz,0000280275c,0000000.608s, 006.7C,00002191
2016-01-01 03:11:58 r, 19.45m,0000000001Hz,0000331930c,0000000.720s, 006.4C,00002191
2016-01-01 03:21:57 r, 19.49m,0000000001Hz,0000342822c,0000000.744s, 006.1C,00002191
2016-01-01 03:31:58 r, 19.50m,0000000002Hz,0000345476c,0000000.750s, 005.8C,00002191
2016-01-01 03:41:58 r, 19.51m,0000000001Hz,0000349476c,0000000.758s, 005.1C,00002191
2016-01-01 03:51:57 r, 19.48m,0000000002Hz,0000339096c,0000000.736s, 004.8C,00002191
2016-01-01 04:01:58 r, 19.47m,0000000001Hz,0000337914c,0000000.733s, 004.5C,00002191
2016-01-01 04:11:57 r, 19.45m,0000000001Hz,0000332916c,0000000.722s, 004.1C,00002191
2016-01-01 04:21:57 r, 19.45m,0000000001Hz,0000330207c,0000000.717s, 004.5C,00002191
2016-01-01 04:31:57 r, 19.44m,0000000002Hz,0000329310c,0000000.715s, 004.5C,00002191
2016-01-01 04:41:57 r, 19.44m,0000000002Hz,0000329255c,0000000.715s, 004.8C,00002191
2016-01-01 04:51:58 r, 19.43m,0000000002Hz,0000326413c,0000000.708s, 004.8C,00002191
2016-01-01 05:01:59 r, 19.42m,0000000001Hz,0000321685c,0000000.698s, 004.8C,00002191
2016-01-01 05:11:57 r, 19.39m,0000000001Hz,0000314765c,0000000.683s, 004.8C,00002191
2016-01-01 05:21:57 r, 19.38m,0000000001Hz,0000310971c,0000000.675s, 004.8C,00002191
2016-01-01 05:32:00 r, 19.38m,0000000001Hz,0000310007c,0000000.673s, 005.1C,00002191
2016-01-01 05:41:58 r, 19.38m,0000000002Hz,0000309885c,0000000.672s, 005.1C,00002191
2016-01-01 05:51:58 r, 19.39m,0000000002Hz,0000314749c,0000000.683s, 005.4C,00002191
2016-01-01 06:01:57 r, 19.41m,0000000001Hz,0000320661c,0000000.696s, 005.1C,00002191
2016-01-01 06:11:57 r, 19.43m,0000000001Hz,0000326383c,0000000.708s, 004.8C,00002191
2016-01-01 06:21:58 r, 19.45m,0000000001Hz,0000331412c,0000000.719s, 004.5C,00002191
2016-01-01 06:31:57 r, 19.46m,0000000002Hz,0000334880c,0000000.727s, 003.8C,00002191
2016-01-01 06:41:57 r, 19.47m,0000000001Hz,0000335874c,0000000.729s, 003.8C,00002191
2016-01-01 06:51:57 r, 19.41m,0000000001Hz,0000319649c,0000000.694s, 003.5C,00002191
2016-01-01 07:01:57 r, 19.19m,0000000002Hz,0000259290c,0000000.563s, 003.2C,00002191
2016-01-01 07:11:58 r, 18.53m,0000000003Hz,0000142132c,0000000.308s, 003.2C,00002191
2016-01-01 07:21:57 r, 17.41m,0000000010Hz,0000050380c,0000000.109s, 002.9C,00002191
2016-01-01 07:31:57 r, 15.93m,0000000036Hz,0000012991c,0000000.028s, 002.9C,00002191
2016-01-01 07:41:58 r, 14.19m,0000000178Hz,0000000000c,0000000.000s, 002.5C,00002191
2016-01-01 07:51:57 r, 12.31m,0000001006Hz,0000000000c,0000000.000s, 002.2C,00002191
2016-01-01 08:01:57 r, 10.45m,0000005589Hz,0000000000c,0000000.000s, 002.5C,00002191
2016-01-01 08:11:57 r, 08.86m,0000024278Hz,0000000000c,0000000.000s, 002.5C,00002191
2016-01-01 08:21:58 r, 07.72m,0000069629Hz,0000000000c,0000000.000s, 002.5C,00002191
2016-01-01 08:31:57 r, 06.93m,0000143400Hz,0000000000c,0000000.000s, 002.5C,00002191
2016-01-01 08:41:57 r, 06.38m,0000237559Hz,0000000000c,0000000.000s, 002.5C,00002191
2016-01-01 08:51:57 r, 05.99m,0000339639Hz,0000000000c,0000000.000s, 002.9C,00002191
2016-01-01 09:01:57 r, 00.00m,0000444129Hz,0000000000c,0000000.000s, 003.2C,00002191
2016-01-01 09:11:57 r, 00.00m,0000547610Hz,0000000000c,0000000.000s, 004.1C,00002191
2016-01-01 09:21:57 r, 00.00m,0000597433Hz,0000000000c,0000000.000s, 005.4C,00002191
2016-01-01 09:31:59 r, 00.00m,0000597271Hz,0000000000c,0000000.000s, 006.4C,00002191
2016-01-01 09:41:57 r, 00.00m,0000597128Hz,0000000000c,0000000.000s, 007.4C,00002191
2016-01-01 09:51:57 r, 00.00m,0000597111Hz,0000000000c,0000000.000s, 008.3C,00002191
2016-01-01 10:01:59 r, 00.00m,0000596954Hz,0000000000c,0000000.000s, 008.7C,00002191
2016-01-01 10:11:57 r, 00.00m,0000596937Hz,0000000000c,0000000.000s, 009.0C,00002191
2016-01-01 10:21:57 r, 00.00m,0000596955Hz,0000000000c,0000000.000s, 009.6C,00002191
2016-01-01 10:31:57 r, 00.00m,0000596884Hz,0000000000c,0000000.000s, 010.3C,00002191
2016-01-01 10:41:57 r, 00.00m,0000596885Hz,0000000000c,0000000.000s, 010.6C,00002191
2016-01-01 10:51:58 r, 00.00m,0000596829Hz,0000000000c,0000000.000s, 011.2C,00002191
2016-01-01 11:01:58 r, 00.00m,0000596846Hz,0000000000c,0000000.000s, 011.6C,00002191
2016-01-01 11:11:57 r, 00.00m,0000596682Hz,0000000000c,0000000.000s, 011.9C,00002191
2016-01-01 11:21:57 r, 00.00m,0000596760Hz,0000000000c,0000000.000s, 011.9C,00002191
2016-01-01 11:31:57 r, 00.00m,0000596734Hz,0000000000c,0000000.000s, 012.2C,00002191
2016-01-01 11:41:59 r, 00.00m,0000596709Hz,0000000000c,0000000.000s, 012.5C,00002191
2016-01-01 11:51:57 r, 00.00m,0000596686Hz,0000000000c,0000000.000s, 012.8C,00002191
2016-01-01 12:01:57 r, 00.00m,0000596720Hz,0000000000c,0000000.000s, 012.8C,00002191
2016-01-01 12:12:00 r, 00.00m,0000596778Hz,0000000000c,0000000.000s, 012.5C,00002191
2016-01-01 12:21:57 r, 00.00m,0000596811Hz,0000000000c,0000000.000s, 010.6C,00002191
2016-01-01 12:31:57 r, 00.00m,0000597023Hz,0000000000c,0000000.000s, 009.6C,00002191
2016-01-01 12:41:57 r, 00.00m,0000597042Hz,0000000000c,0000000.000s, 009.0C,00002191
2016-01-01 12:51:57 r, 00.00m,0000597114Hz,0000000000c,0000000.000s, 009.0C,00002191
2016-01-01 13:01:57 r, 00.00m,0000597054Hz,0000000000c,0000000.000s, 008.7C,00002191
2016-01-01 13:11:57 r, 00.00m,0000596976Hz,0000000000c,0000000.000s, 008.7C,00002191
2016-01-01 13:21:57 r, 00.00m,0000597108Hz,0000000000c,0000000.000s, 008.7C,00002191
2016-01-01 13:31:57 r, 00.00m,0000597233Hz,0000000000c,0000000.000s, 008.7C,00002191
2016-01-01 13:41:58 r, 00.00m,0000597098Hz,0000000000c,0000000.000s, 008.3C,00002191
2016-01-01 13:51:57 r, 00.00m,0000597109Hz,0000000000c,0000000.000s, 008.3C,00002191
2016-01-01 14:01:57 r, 00.00m,0000597170Hz,0000000000c,0000000.000s, 008.3C,00002191
2016-01-01 14:11:58 r, 00.00m,0000597120Hz,0000000000c,0000000.000s, 008.3C,00002191
2016-01-01 14:21:57 r, 00.00m,0000597076Hz,0000000000c,0000000.000s, 008.3C,00002191
2016-01-01 14:31:57 r, 00.00m,0000597081Hz,0000000000c,0000000.000s, 009.0C,00002191
2016-01-01 14:41:57 r, 00.00m,0000597002Hz,0000000000c,0000000.000s, 009.3C,00002191
2016-01-01 14:51:57 r, 00.00m,0000597026Hz,0000000000c,0000000.000s, 009.6C,00002191
2016-01-01 15:01:57 r, 00.00m,0000597136Hz,0000000000c,0000000.000s, 009.3C,00002191
2016-01-01 15:11:57 r, 00.00m,0000597144Hz,0000000000c,0000000.000s, 008.7C,00002191
2016-01-01 15:21:57 r, 00.00m,0000597030Hz,0000000000c,0000000.000s, 008.7C,00002191
2016-01-01 15:31:57 r, 00.00m,0000597059Hz,0000000000c,0000000.000s, 008.3C,00002191
2016-01-01 15:41:59 r, 00.00m,0000597158Hz,0000000000c,0000000.000s, 008.0C,00002191
2016-01-01 15:51:57 r, 00.00m,0000536190Hz,0000000000c,0000000.000s, 008.7C,00002191
2016-01-01 16:01:57 r, 00.00m,0000430626Hz,0000000000c,0000000.000s, 008.7C,00002191
2016-01-01 16:11:57 r, 06.02m,0000331326Hz,0000000000c,0000000.000s, 008.3C,00002191
2016-01-01 16:21:57 r, 06.40m,0000232510Hz,0000000000c,0000000.000s, 008.0C,00002191
2016-01-01 16:31:57 r, 06.94m,0000141765Hz,0000000000c,0000000.000s, 007.0C,00002191
2016-01-01 16:41:57 r, 07.72m,0000069347Hz,0000000000c,0000000.000s, 006.4C,00002191
2016-01-01 16:51:57 r, 08.83m,0000024719Hz,0000000000c,0000000.000s, 005.4C,00002191
2016-01-01 17:01:57 r, 10.38m,0000005970Hz,0000000000c,0000000.000s, 005.1C,00002191
2016-01-01 17:11:57 r, 12.24m,0000001079Hz,0000000000c,0000000.000s, 004.8C,00002191
2016-01-01 17:21:57 r, 14.15m,0000000184Hz,0000000000c,0000000.000s, 004.1C,00002191
2016-01-01 17:31:57 r, 15.91m,0000000036Hz,0000012672c,0000000.028s, 004.1C,00002191
2016-01-01 17:41:57 r, 17.40m,0000000009Hz,0000049997c,0000000.109s, 003.8C,00002191
2016-01-01 17:51:57 r, 18.66m,0000000003Hz,0000160277c,0000000.348s, 003.5C,00002191
2016-01-01 18:01:57 r, 19.57m,0000000002Hz,0000364924c,0000000.792s, 003.2C,00002191
2016-01-01 18:11:58 r, 19.99m,0000000001Hz,0000538630c,0000001.169s, 003.2C,00002191
2016-01-01 18:21:57 r, 20.13m,0000000001Hz,0000616253c,0000001.337s, 003.2C,00002191
2016-01-01 18:31:57 r, 20.17m,0000000001Hz,0000636485c,0000001.381s, 003.2C,00002191
2016-01-01 18:41:57 r, 20.18m,0000000000Hz,0000642174c,0000001.394s, 003.2C,00002191
2016-01-01 18:51:57 r, 20.18m,0000000001Hz,0000646859c,0000001.404s, 003.2C,00002191
2016-01-01 19:01:57 r, 20.19m,0000000000Hz,0000650775c,0000001.412s, 003.2C,00002191
2016-01-01 19:11:57 r, 20.20m,0000000001Hz,0000656526c,0000001.425s, 003.5C,00002191
2016-01-01 19:21:57 r, 20.19m,0000000000Hz,0000649062c,0000001.409s, 003.5C,00002191
2016-01-01 19:31:57 r, 20.18m,0000000000Hz,0000640309c,0000001.390s, 003.5C,00002191
2016-01-01 19:41:57 r, 20.15m,0000000000Hz,0000626945c,0000001.361s, 003.2C,00002191
2016-01-01 19:51:57 r, 20.19m,0000000001Hz,0000648000c,0000001.406s, 003.2C,00002191
2016-01-01 20:01:57 r, 20.20m,0000000001Hz,0000656704c,0000001.425s, 003.2C,00002191
2016-01-01 20:11:57 r, 20.23m,0000000001Hz,0000672796c,0000001.460s, 003.5C,00002191
2016-01-01 20:21:57 r, 20.21m,0000000001Hz,0000662179c,0000001.437s, 004.1C,00002191
2016-01-01 20:31:57 r, 20.24m,0000000000Hz,0000679685c,0000001.475s, 004.5C,00002191
2016-01-01 20:41:57 r, 20.25m,0000000000Hz,0000686307c,0000001.489s, 004.8C,00002191
2016-01-01 20:51:57 r, 20.26m,0000000000Hz,0000688211c,0000001.494s, 004.8C,00002191
2016-01-01 21:01:57 r, 20.25m,0000000001Hz,0000684500c,0000001.485s, 004.8C,00002191
2016-01-01 21:11:57 r, 20.24m,0000000001Hz,0000682639c,0000001.481s, 004.8C,00002191
2016-01-01 21:21:57 r, 20.24m,0000000000Hz,0000683407c,0000001.483s, 004.8C,00002191
2016-01-01 21:31:57 r, 20.24m,0000000001Hz,0000679681c,0000001.475s, 004.8C,00002191
2016-01-01 21:41:57 r, 20.20m,0000000001Hz,0000654669c,0000001.421s, 005.1C,00002191
2016-01-01 21:51:57 r, 20.20m,0000000001Hz,0000655739c,0000001.423s, 005.1C,00002191
2016-01-01 22:01:57 r, 20.17m,0000000000Hz,0000635603c,0000001.379s, 005.1C,00002191
2016-01-01 22:11:57 r, 19.88m,0000000001Hz,0000483762c,0000001.050s, 005.1C,00002191
2016-01-01 22:21:57 r, 20.26m,0000000000Hz,0000688372c,0000001.494s, 005.1C,00002191
2016-01-01 22:31:57 r, 20.26m,0000000001Hz,0000695184c,0000001.509s, 005.1C,00002191
2016-01-01 22:41:57 r, 20.26m,0000000000Hz,0000695043c,0000001.508s, 005.1C,00002191
2016-01-01 22:51:57 r, 20.28m,0000000000Hz,0000704627c,0000001.529s, 004.8C,00002191
2016-01-01 23:01:57 r, 20.29m,0000000001Hz,0000711593c,0000001.544s, 004.5C,00002191
2016-01-01 23:11:57 r, 20.28m,0000000000Hz,0000702780c,0000001.525s, 004.5C,00002191
2016-01-01 23:21:57 r, 20.20m,0000000001Hz,0000657634c,0000001.427s, 004.8C,00002191
2016-01-01 23:31:57 r, 19.58m,0000000002Hz,0000371448c,0000000.806s, 004.8C,00002191
2016-01-01 23:41:57 r, 20.13m,0000000000Hz,0000610590c,0000001.325s, 004.8C,00002191
2016-01-01 23:51:57 r, 20.34m,0000000001Hz,0000744888c,0000001.617s, 004.8C,00002191
